Regional Weather Roundup
Issued by NWS

Home | Current Version | Previous Version | Graphics & Text | Print | Product List | Glossary On
Versions: 1 2 3 4 5 6 7 8 9 10 11 12 13 14 15 16 17 18 19 20 21 22 23 24 25 26 27 28 29 30 31 32 33 34 35 36 37 38 39 40 41 42 43 44 45 46 47 48 49 50
000
ASUS45 KABQ 201101
RWRNM
WEATHER ROUNDUP FOR NEW MEXICO
NATIONAL WEATHER SERVICE ALBUQUERQUE NM
500 AM MDT MON OCT 20 2014

NOTE: "FAIR" MEANS FEW OR NO CLOUDS BELOW 12,000 FEET AGL WITH NO
       SIGNIFICANT WEATHER OR OBSTRUCTIONS TO VISION.

      THIS PRODUCT IS RELEASED AS TWO VERSIONS.  ONE VERSION NEAR
      THE TOP OF THE HOUR CONTAINING PRELIMINARY DATA FROM ALBUQUERQUE
      AND OTHER STATIONS.  A FINAL VERSION WITH ADDITIONAL DATA IS
      ISSUED ABOUT 10 MINUTES AFTER THE HOUR.

NMZ501-503-504-510>518-201200-
NORTHWEST PLATEAU/NORTHCENTRAL MOUNTAINS

CITY           SKY/WX    TMP DP  RH WIND       PRES   REMARKS
FARMINGTON     CLEAR     45  42  89 E5        30.16R
LOS ALAMOS     MOCLDY    46  38  74 CALM      30.26R
SANTA FE       MOCLDY    46  40  79 CALM      30.22S
TAOS           PTCLDY    37  34  87 N7        30.26R WCI  32
ANGEL FIRE     FOG       32  31  96 CALM      30.33F VSB 1/4

$$
NMZ402-403-502-505>509-201200-
WESTCENTRAL MOUNTAINS/SOUTHWEST MOUNTAINS

CITY           SKY/WX    TMP DP  RH WIND       PRES   REMARKS
GALLUP         CLEAR     39  38  96 CALM      30.19S
SILVER CITY    CLEAR     50  45  81 NW3       30.14R

$$
NMZ407-409-411-412-201200-
SOUTHERN DESERTS

CITY           SKY/WX    TMP DP  RH WIND       PRES   REMARKS
LORDSBURG      FAIR      52  46  82 MISG      30.07R
DEMING         PTCLDY    54  50  86 E8        30.08F
T OR C         CLOUDY    54  51  90 NW6       30.13F

$$
NMZ519>523-201200-
CENTRAL VALLEYS/CENTRAL HIGHLANDS

CITY           SKY/WX    TMP DP  RH WIND       PRES   REMARKS
ALBUQUERQUE    PTCLDY    50  43  77 CALM      30.18S
DOUBLE EAGLE   PTCLDY    42  37  80 NW6       30.19F
MORIARTY ARPT  FAIR      36  33  88 CALM      30.23R
CLINES CORNERS PTCLDY    44  39  82 W5        30.22S
BELEN          NOT AVBL
SOCORRO        CLOUDY    52  51  96 CALM      30.18R

$$
NMZ524>526-539-540-201200-
SOUTHCENTRAL MOUNTAINS

CITY           SKY/WX    TMP DP  RH WIND       PRES   REMARKS
RUIDOSO        NOT AVBL

$$
NMZ527>531-201200-
NORTHEAST HIGHLANDS/NORTHEAST PLAINS

CITY           SKY/WX    TMP DP  RH WIND       PRES   REMARKS
LAS VEGAS      PTCLDY    47  39  74 SW3       30.24S
RATON          MOCLDY    40  35  83 E9        30.21R WCI  34
CLAYTON        CLEAR     48  41  76 NW10      30.15S

$$
NMZ532>537-201200-
EASTCENTRAL PLAINS

CITY           SKY/WX    TMP DP  RH WIND       PRES   REMARKS
TUCUMCARI      CLEAR     52  47  83 W6        30.10S
CANNON AFB     CLEAR     54  54 100 W6        30.12S
CLOVIS AIRPORT CLEAR     52  48  87 W7        30.15R

$$
NMZ028-029-538-201200-
SOUTHEAST PLAINS

CITY           SKY/WX    TMP DP  RH WIND       PRES   REMARKS
ROSWELL        MOCLDY    55  51  86 N5        30.10R
CARLSBAD       CLOUDY    63  58  83 NE3       30.06S


$$


USA.gov is the U.S. government's official web portal to all federal, state and local government web resources and services.